Wind_Speed
28 28 24 29 26 23 18 16 13 9 10 6 5 2 6 4 4 4 4 7 8 8 8 8 9 11 11 8 15 14 17 13
28 25 26 37 36 27 22 18 15 12 10 12 9 8 8 6 3 3 5 7 8 9 9 8 11 13 12 14 13 16 13 12
28 26 27 35 37 27 26 25 22 19 19 16 14 10 7 7 3 4 6 8 6 7 8 9 10 12 14 15 13 13 10 13
30 30 30 32 27 27 26 25 22 19 20 18 13 9 8 3 3 4 7 7 5 5 9 11 7 10 10 9 11 9 11 16
33 32 29 26 25 24 23 22 22 21 20 15 12 7 5 3 4 6 7 6 4 7 11 8 8 6 3 3 5 7 11 13
36 36 34 28 27 26 22 19 19 16 14 13 10 11 8 3 4 4 7 6 5 8 11 5 4 1 3 2 5 7 6 10
40 36 38 36 33 31 24 21 17 15 17 15 12 13 8 6 5 2 5 7 5 8 9 4 6 7 4 4 12 6 7 2
35 41 40 38 35 29 23 21 18 18 17 15 14 13 10 7 3 1 5 7 4 5 6 5 8 10 6 2 5 6 12 9
31 45 43 40 35 31 27 22 21 19 19 17 15 14 9 6 1 3 4 6 4 1 4 5 8 11 9 4 6 8 13 14
27 45 44 42 38 34 30 25 21 18 15 12 10 10 9 4 1 2 6 6 4 1 6 5 6 8 7 7 8 12 12 16
55 46 45 44 39 34 30 25 21 18 20 18 19 18 11 6 4 3 5 5 3 6 6 4 3 4 9 7 6 7 7 12
42 53 48 41 34 29 27 26 21 21 21 19 25 18 13 10 5 1 4 3 4 5 6 3 6 9 9 7 5 4 6 11
52 56 46 35 31 27 27 27 23 26 22 22 22 16 13 12 8 4 1 2 3 5 6 5 5 6 10 11 13 6 10 11
40 34 28 22 23 22 25 24 25 24 22 20 22 16 17 16 12 6 4 5 4 5 2 3 5 3 6 9 10 11 8 8
40 35 26 9 26 21 24 27 27 26 24 21 22 19 17 15 10 6 3 4 3 3 1 1 4 2 8 6 7 9 8 5
29 26 18 19 24 24 26 28 28 28 29 25 24 23 19 13 9 7 4 7 6 6 4 4 2 6 2 3 5 6 7 8
12 9 17 28 28 31 32 29 27 27 31 28 28 24 21 15 14 15 16 10 10 7 5 5 3 7 5 3 1 5 8 5
18 26 31 23 26 32 31 27 26 27 26 27 25 21 18 17 13 15 16 14 10 9 7 5 3 3 6 6 4 2 6 4
7 24 26 21 25 25 27 23 24 22 23 26 22 22 19 17 14 14 16 17 14 12 7 4 3 2 7 7 4 3 1 3
8 20 10 13 17 26 27 22 22 24 26 27 24 25 22 19 16 17 14 13 16 12 7 6 5 4 5 6 7 2 6 6
Wind_Direction
171 169 184 171 172 162 148 136 130 130 103 120 112 343 321 25 15 42 19 18 10 13 23 2 351 347 1 358 11 43 38 15
179 175 176 168 171 166 155 147 148 146 144 156 182 259 288 315 19 33 13 14 18 28 25 3 353 3 17 25 42 43 24 7
182 175 166 166 166 167 159 158 168 169 172 178 208 236 261 309 2 15 12 22 41 28 360 351 357 26 35 49 36 39 22 359
177 168 162 163 167 167 169 176 185 198 191 199 217 226 249 283 318 20 26 38 53 6 357 9 28 39 30 44 51 38 25 31
185 182 170 172 170 176 182 188 197 199 200 196 189 203 223 283 314 14 31 46 27 8 15 37 57 48 3 60 96 74 35 24
188 183 184 188 192 203 208 201 199 189 187 189 190 194 217 267 295 352 30 35 29 26 28 58 53 25 317 54 97 89 51 53
188 188 185 196 205 207 212 204 205 196 188 193 198 200 207 210 247 338 22 49 30 24 23 41 23 323 0 88 74 67 14 357
186 194 188 194 199 204 210 209 205 189 196 192 196 198 194 208 224 96 8 58 45 29 19 28 36 21 45 112 74 47 28 18
201 195 188 189 193 202 209 211 203 198 192 192 188 182 188 198 194 10 47 30 93 299 57 40 41 25 47 85 97 76 44 20
207 194 190 193 196 202 207 212 208 194 194 169 168 168 190 197 336 63 35 28 57 150 103 119 43 13 53 72 122 80 65 40
189 196 194 194 196 198 209 213 208 192 176 179 180 187 195 203 199 102 26 19 54 116 131 131 73 5 33 71 74 89 73 66
193 195 195 197 197 204 212 209 202 187 184 196 199 207 206 188 199 53 356 29 78 85 110 115 56 37 47 62 36 78 82 84
187 196 200 194 198 211 210 202 189 189 192 203 211 192 192 186 198 245 275 113 106 68 72 79 62 31 41 39 45 88 93 87
181 184 179 185 203 203 199 196 186 188 197 202 191 187 191 193 209 222 141 101 104 102 87 54 119 64 26 40 44 53 117 97
156 167 165 204 235 216 209 197 189 191 199 192 189 197 210 214 204 189 136 159 165 171 352 199 110 65 23 72 28 37 98 112
146 161 204 195 204 212 208 202 193 193 194 191 194 199 211 207 194 171 173 219 235 233 309 187 150 134 68 73 21 10 89 80
145 178 179 181 196 211 218 212 199 198 196 196 197 204 210 200 187 176 201 206 209 238 261 191 234 165 184 196 305 31 84 40
148 165 176 178 228 212 209 215 205 202 202 202 202 201 202 194 190 190 192 203 209 220 194 213 228 183 175 190 209 29 81 49
204 187 190 277 210 200 211 213 202 203 204 207 199 195 202 207 204 209 202 213 213 210 215 195 186 307 196 212 193 87 297 311
161 228 218 172 216 204 207 212 209 208 208 211 198 198 205 212 211 207 214 213 220 222 172 197 201 254 255 199 174 259 241 272
Height
1529 1529 1528 1528 1531 1535 1539 1540 1543 1545 1547 1549 1549 1550 1550 1552 1552 1552 1551 1550 1549 1548 1547 1546 1545 1544 1542 1540 1538 1537 1536 1534
1529 1528 1525 1527 1531 1534 1537 1540 1542 1545 1547 1549 1550 1550 1549 1550 1551 1551 1550 1548 1547 1546 1545 1544 1543 1542 1540 1539 1538 1537 1536 1535
1529 1530 1526 1526 1529 1534 1536 1539 1542 1543 1546 1547 1548 1549 1549 1550 1550 1550 1548 1547 1545 1544 1544 1543 1542 1542 1541 1540 1539 1539 1536 1536
1529 1529 1528 1526 1529 1532 1533 1536 1539 1541 1543 1544 1546 1547 1546 1549 1549 1549 1547 1545 1544 1542 1542 1542 1542 1541 1541 1540 1540 1539 1538 1536
1528 1528 1526 1525 1530 1533 1532 1532 1536 1539 1541 1542 1544 1545 1544 1545 1547 1547 1546 1544 1542 1541 1542 1541 1542 1541 1540 1540 1540 1539 1538 1537
1525 1523 1526 1527 1528 1530 1532 1532 1532 1537 1541 1540 1542 1543 1544 1541 1544 1546 1544 1542 1540 1540 1540 1541 1541 1540 1540 1539 1539 1539 1537 1537
1519 1520 1516 1521 1523 1525 1528 1530 1531 1535 1538 1539 1541 1542 1543 1541 1543 1544 1543 1541 1538 1538 1540 1540 1541 1540 1539 1539 1538 1537 1537 1537
1521 1521 1514 1515 1520 1521 1524 1528 1530 1532 1534 1537 1539 1540 1541 1541 1543 1543 1541 1540 1538 1538 1539 1539 1539 1538 1538 1539 1538 1538 1537 1535
1517 1514 1511 1514 1515 1515 1518 1523 1527 1529 1531 1533 1536 1537 1539 1541 1541 1541 1540 1539 1539 1538 1539 1538 1538 1538 1538 1538 1538 1537 1537 1535
1513 1512 1508 1506 1507 1511 1516 1521 1524 1526 1529 1532 1534 1536 1537 1540 1540 1540 1539 1538 1539 1539 1539 1538 1537 1538 1539 1539 1538 1537 1537 1536
1487 1503 1504 1500 1499 1505 1513 1519 1524 1526 1527 1529 1534 1536 1537 1538 1539 1539 1538 1538 1539 1539 1540 1538 1539 1539 1539 1538 1538 1537 1537 1537
1481 1489 1494 1493 1498 1507 1510 1516 1520 1525 1528 1533 1535 1534 1534 1535 1536 1536 1537 1537 1539 1539 1540 1540 1539 1540 1538 1539 1539 1538 1538 1538
1469 1479 1479 1486 1496 1502 1509 1512 1516 1521 1527 1533 1537 1537 1533 1533 1534 1535 1537 1538 1539 1539 1540 1541 1540 1539 1539 1539 1539 1538 1539 1540
1468 1477 1491 1502 1506 1498 1504 1512 1516 1521 1527 1532 1536 1537 1535 1534 1534 1534 1535 1537 1539 1539 1540 1541 1540 1541 1541 1540 1539 1540 1541 1541
1469 1477 1486 1489 1500 1506 1503 1507 1513 1520 1524 1530 1534 1535 1536 1536 1535 1533 1533 1535 1536 1538 1539 1540 1541 1541 1541 1541 1540 1541 1541 1541
1478 1477 1481 1483 1495 1503 1503 1508 1510 1516 1523 1526 1530 1532 1533 1533 1534 1531 1532 1535 1536 1536 1538 1539 1541 1541 1541 1541 1540 1541 1540 1541
1489 1489 1486 1489 1486 1497 1500 1510 1512 1516 1520 1524 1527 1531 1532 1532 1532 1532 1532 1534 1537 1536 1536 1538 1540 1540 1540 1540 1540 1541 1541 1541
1487 1486 1482 1476 1484 1495 1500 1511 1512 1517 1522 1526 1529 1532 1534 1535 1533 1533 1532 1533 1534 1536 1535 1536 1538 1538 1539 1539 1540 1541 1540 1541
1492 1488 1488 1486 1492 1502 1507 1510 1513 1519 1522 1525 1527 1528 1532 1536 1536 1533 1533 1534 1534 1535 1534 1535 1536 1537 1538 1539 1540 1540 1540 1540
1491 1494 1492 1494 1503 1507 1505 1507 1509 1514 1517 1522 1524 1526 1527 1536 1535 1532 1533 1533 1535 1535 1533 1534 1535 1536 1537 1538 1538 1539 1540 1539